Montreal/Mirabel, Ontario

2:13 AM EST on December 08, 2016 (GMT -0500)
Montreal International (Mirabel)

Weather History for CYMX - February, 2011

Change the Weather History Date:

Monday, February 28, 2011

  Actual Average Record
Temperature  
Mean Temperature 25 °F -  
Max Temperature 33 °F 26 °F 37 °F (1998)
Min Temperature 17 °F 10 °F -5 °F (2001)
Degree Days  
Heating Degree Days 40    
Moisture  
Dew Point 18 °F    
Average Humidity 75    
Maximum Humidity 93    
Minimum Humidity 58    
Precipitation  
Precipitation 0.00 in - - ()
Sea Level Pressure  
Sea Level Pressure 29.72 in    
Wind  
Wind Speed 6 mph ()    
Max Wind Speed 12 mph    
Max Gust Speed 21 mph    
Visibility 7.8 miles    
Events Snow    
Averages and records for this station are not official NWS values.
T = Trace of Precipitation, MM = Missing Value Source: Averaged Metar Reports

Daily Weather History Graph

Daily Weather History Graph

Search for Another Location

Airport or City:

Trip Planner

Search our weather history database for the weather conditions in past years. The results will help you decide how hot, cold, wet, or windy it might be!

Date:

Astronomy

Feb. 28, 2011 Rise Set
Actual Time 6:36 AM EST 5:41 PM EST
Civil Twilight 6:07 AM EST 6:11 PM EST
Nautical Twilight 5:32 AM EST 6:45 PM EST
Astronomical Twilight 4:58 AM EST 7:19 PM EST
Moon 4:19 AM EST (2/28) 1:43 PM EST (2/28)
Length of Visible Light 12h 03m
Length of Day
11h 04m
Waning Crescent, 15% of the Moon is Illuminated
Feb 28
Waning Crescent
Mar 4
New
Mar 12
First Quarter
Mar 19
Full
Mar 26
Last Quarter

Hourly Weather History & Observations

Time (EST) Temp. Windchill Dew Point Humidity Pressure Visibility Wind Dir Wind Speed Gust Speed Precip Events Conditions
12:00 AM 19.4 °F 11.5 °F 6.8 °F 58% 29.98 in 25.0 mi NE 5.8 mph - N/A   Overcast
1:00 AM 19.4 °F 11.5 °F 6.8 °F 58% 29.97 in 20.0 mi NNE 5.8 mph - N/A   Overcast
1:14 AM 19.4 °F 12.8 °F 6.8 °F 58% - 15.0 mi NNE 4.6 mph - N/A Snow Light Snow
2:00 AM 17.6 °F 9.3 °F 8.6 °F 68% 29.94 in 25.0 mi NNE 5.8 mph - N/A Snow Light Snow
3:00 AM 17.6 °F 8.2 °F 10.4 °F 73% 29.87 in 25.0 mi NNE 6.9 mph - N/A Snow Light Snow
4:00 AM 19.4 °F 9.5 °F 12.2 °F 74% 29.86 in 25.0 mi NE 8.1 mph - N/A Snow Light Snow
5:00 AM 19.4 °F 8.6 °F 12.2 °F 74% 29.83 in 25.0 mi NE 9.2 mph - N/A Snow Light Snow
6:00 AM 21.2 °F 12.6 °F 14.0 °F 74% 29.80 in 10.0 mi NE 6.9 mph - N/A Snow Light Snow
7:00 AM 21.2 °F 12.6 °F 15.8 °F 80% 29.74 in 3.0 mi NE 6.9 mph - N/A Snow Light Snow
8:00 AM 23.0 °F 14.7 °F 17.6 °F 80% 29.69 in 1.5 mi NE 6.9 mph - N/A Snow Light Snow
8:16 AM 23.0 °F 13.9 °F 17.6 °F 80% - 1.0 mi NE 8.1 mph - N/A Snow Light Snow
9:00 AM 23.0 °F 15.8 °F 17.6 °F 80% 29.63 in 0.8 mi NE 5.8 mph - N/A Snow Light Snow
10:00 AM 24.8 °F 19.1 °F 19.4 °F 80% 29.56 in 0.8 mi NE 4.6 mph - N/A Snow Light Snow
11:00 AM 26.6 °F 19.1 °F 21.2 °F 80% 29.54 in 0.6 mi NNE 6.9 mph - N/A Snow Light Snow
12:00 PM 28.4 °F 19.7 °F 24.8 °F 86% 29.49 in 1.2 mi NNE 9.2 mph - N/A Snow Light Snow
1:00 PM 28.4 °F 23.3 °F 24.8 °F 86% 29.44 in 0.8 mi NNE 4.6 mph - N/A Snow Light Snow
2:00 PM 30.2 °F 24.3 °F 26.6 °F 86% 29.49 in 0.8 mi North 5.8 mph - N/A Snow Light Snow
2:46 PM 30.2 °F 23.4 °F 28.4 °F 93% - 2.5 mi NNW 6.9 mph - N/A Snow Light Snow
3:00 PM 32.0 °F 27.5 °F 28.4 °F 87% 29.49 in 5.0 mi NW 4.6 mph - N/A Snow Light Snow
3:49 PM 33.8 °F - 28.4 °F 81% - 20.0 mi NW 2.3 mph - N/A   Mostly Cloudy
4:00 PM 32.0 °F - 30.2 °F 93% 29.51 in 20.0 mi SW 2.3 mph - N/A   Mostly Cloudy
5:00 PM 33.8 °F 27.7 °F 26.6 °F 75% 29.61 in 20.0 mi WNW 6.9 mph 18.4 mph N/A   Mostly Cloudy
6:00 PM 32.0 °F 24.2 °F 24.8 °F 75% 29.69 in 15.0 mi WNW 9.2 mph - N/A   Overcast
7:00 PM 32.0 °F 24.2 °F 23.0 °F 69% 29.75 in 25.0 mi WNW 9.2 mph 20.7 mph N/A   Mostly Cloudy
8:00 PM 28.4 °F 21.2 °F 19.4 °F 69% 29.81 in 25.0 mi West 6.9 mph - N/A   Partly Cloudy
9:00 PM 26.6 °F 20.0 °F 17.6 °F 69% 29.85 in 25.0 mi West 5.8 mph - N/A   Scattered Clouds
10:00 PM 26.6 °F 20.0 °F 15.8 °F 64% 29.88 in 25.0 mi West 5.8 mph - N/A   Partly Cloudy
11:00 PM 24.8 °F 16.9 °F 14.0 °F 64% 29.90 in 25.0 mi NW 6.9 mph - N/A   Partly Cloudy
11:21 PM 24.8 °F 14.0 °F 14.0 °F 64% - 10.0 mi NW 11.5 mph 20.7 mph N/A Snow Light Snow Showers